Date,TemperatureHighF,TemperatureAvgF,TemperatureLowF,DewpointHighF,DewpointAvgF,DewpointLowF,HumidityHigh,HumidityAvg,HumidityLow,PressureMaxIn,PressureMinIn,WindSpeedMaxMPH,WindSpeedAvgMPH,GustSpeedMaxMPH,PrecipitationSumIn
2013-4-1,73.2,62.6,48.9,26.2,16.0,-1.7,39,19,6,29.69,29.46,15,3,21,0.00
2013-4-2,64.9,56.1,46.2,23.4,15.6,-1.3,32,21,8,29.65,29.44,20,4,26,0.00
2013-4-3,65.1,51.3,38.3,30.9,25.3,16.2,67,40,15,29.85,29.65,12,3,18,0.00
2013-4-4,70.9,56.3,40.3,28.4,18.7,6.3,53,28,8,29.95,29.75,8,2,11,0.00
2013-4-5,75.2,65.3,56.5,17.4,11.3,2.5,18,12,6,29.78,29.40,16,5,24,0.00
2013-4-6,74.3,63.0,48.7,25.3,19.6,11.5,38,20,9,29.61,29.42,13,3,18,0.00
2013-4-7,73.9,63.8,50.2,26.4,18.1,9.9,36,19,9,29.52,29.33,18,4,22,0.00
2013-4-8,75.6,64.0,51.4,28.2,19.9,6.8,36,20,7,29.36,28.95,34,8,40,0.00
2013-4-9,54.3,45.2,38.3,35.4,31.2,25.9,85,59,37,29.60,28.99,22,5,27,0.04
2013-4-10,46.8,40.7,35.8,35.1,26.9,20.1,87,59,39,29.79,29.60,18,4,20,0.07
2013-4-11,63.5,47.8,31.5,30.4,24.4,17.6,66,42,24,29.82,29.60,23,5,23,0.05
2013-4-12,67.6,56.3,44.4,33.4,28.8,21.0,64,37,19,29.65,29.49,12,2,21,0.00
2013-4-13,73.0,60.1,43.3,28.4,20.4,8.6,54,25,9,29.58,29.31,19,4,24,0.00
2013-4-14,74.8,64.7,55.2,24.8,20.9,14.4,29,19,10,29.34,29.18,20,8,30,0.00
2013-4-15,79.9,65.0,48.2,25.2,16.9,2.5,37,18,5,29.37,29.16,22,6,27,0.00
2013-4-16,79.3,66.1,54.7,23.7,12.6,-16.6,26,14,2,29.40,29.20,27,8,34,0.00
2013-4-17,62.1,52.6,40.5,28.0,18.2,5.2,41,27,11,29.65,29.24,18,6,25,0.00
2013-4-18,49.8,40.5,30.7,17.1,5.0,-4.7,41,25,10,30.06,29.66,22,7,29,0.00
2013-4-19,61.7,45.3,28.8,7.2,2.8,-3.3,39,19,8,30.16,29.78,10,2,18,0.00
2013-4-20,68.5,55.8,44.4,19.2,6.4,-5.4,25,14,8,29.78,29.53,20,5,27,0.00
2013-4-21,72.5,57.8,42.1,23.0,15.4,-7.2,43,22,4,29.84,29.64,19,3,21,0.00
2013-4-22,80.8,65.6,49.5,18.5,11.5,-2.9,28,14,4,29.68,29.37,21,5,26,0.00
2013-4-23,66.7,57.5,42.4,29.5,13.1,-26.0,52,21,3,29.75,29.41,18,6,29,0.00
2013-4-24,68.0,49.5,29.8,22.6,16.1,10.6,58,31,12,29.94,29.75,8,2,11,0.00
2013-4-25,76.3,60.4,47.8,28.9,22.9,9.1,42,25,9,29.82,29.47,22,4,35,0.00
2013-4-26,74.1,60.7,46.9,31.3,17.1,-13.4,52,25,3,29.84,29.65,19,3,20,0.00
2013-4-27,75.0,61.6,45.1,28.6,9.5,-22.9,43,20,2,29.88,29.68,11,3,21,0.00
2013-4-28,79.5,64.4,46.9,12.2,0.4,-18.9,24,10,2,29.73,29.49,12,3,20,0.00
2013-4-29,83.8,68.2,49.8,19.0,9.8,0.7,21,11,4,29.55,29.30,18,3,22,0.00
2013-4-30,84.7,71.3,57.6,19.4,10.7,-6.2,21,11,3,29.41,29.25,17,4,32,0.00